Hourly Weather Munyakovskie Vyselki

Today, 6 December, Sunday

Time Temperature Precipitation Wind Pressure Humidity
00:00 -9°C° 0 mm 3 mps 769 mmHg 54%
01:00 -8°C° 0 mm 2 mps 769 mmHg 54%
02:00 -8°C° 0 mm 2 mps 769 mmHg 54%
03:00 -8°C° 0 mm 2 mps 769 mmHg 55%
04:00 -8°C° 0 mm 2 mps 769 mmHg 56%
05:00 -8°C° 0 mm 2 mps 769 mmHg 57%
06:00 -8°C° 0 mm 2 mps 769 mmHg 57%
07:00 -8°C° 0 mm 2 mps 770 mmHg 58%
08:00 -8°C° 0 mm 2 mps 770 mmHg 58%
09:00 -8°C° 0 mm 2 mps 770 mmHg 58%
10:00 -7°C° 0 mm 2 mps 770 mmHg 55%
11:00 -6°C° 0 mm 2 mps 770 mmHg 53%
12:00 -6°C° 0 mm 2 mps 770 mmHg 50%
13:00 -6°C° 0 mm 2 mps 770 mmHg 52%
14:00 -6°C° 0 mm 2 mps 770 mmHg 53%
15:00 -3°C° 0 mm 1 mps 770 mmHg 55%
16:00 -6°C° 0 mm 2 mps 770 mmHg 56%
17:00 -6°C° 0 mm 2 mps 770 mmHg 58%
18:00 -7°C° 0 mm 2 mps 770 mmHg 59%
19:00 -7°C° 0 mm 2 mps 770 mmHg 59%
20:00 -7°C° 0 mm 2 mps 771 mmHg 59%
21:00 -7°C° 0 mm 2 mps 771 mmHg 58%
22:00 -7°C° 0 mm 2 mps 771 mmHg 60%
23:00 -8°C° 0 mm 2 mps 770 mmHg 62%

Tomorrow, 7 December, Monday

Time Temperature Precipitation Wind Pressure Humidity
00:00 -8°C° 0 mm 2 mps 770 mmHg 63%
01:00 -8°C° 0 mm 2 mps 771 mmHg 65%
02:00 -8°C° 0 mm 2 mps 771 mmHg 66%
03:00 -8°C° 0 mm 2 mps 771 mmHg 68%
04:00 -8°C° 0 mm 2 mps 771 mmHg 69%
05:00 -8°C° 0 mm 2 mps 770 mmHg 70%
06:00 -8°C° 0 mm 2 mps 770 mmHg 71%
07:00 -8°C° 0 mm 2 mps 770 mmHg 71%
08:00 -8°C° 0 mm 2 mps 770 mmHg 71%
09:00 -8°C° 0 mm 2 mps 770 mmHg 71%
10:00 -8°C° 0 mm 2 mps 770 mmHg 66%
11:00 -7°C° 0 mm 2 mps 770 mmHg 62%
12:00 -6°C° 0 mm 2 mps 770 mmHg 58%
13:00 -6°C° 0 mm 2 mps 770 mmHg 58%
14:00 -6°C° 0 mm 2 mps 770 mmHg 58%
15:00 -4°C° 0 mm 1 mps 770 mmHg 58%
16:00 -6°C° 0 mm 2 mps 770 mmHg 58%
17:00 -7°C° 0 mm 2 mps 769 mmHg 59%
18:00 -7°C° 0 mm 2 mps 769 mmHg 60%
19:00 -7°C° 0 mm 2 mps 769 mmHg 59%
20:00 -7°C° 0 mm 2 mps 769 mmHg 59%
21:00 -7°C° 0 mm 2 mps 769 mmHg 58%
22:00 -7°C° 0 mm 2 mps 769 mmHg 58%
23:00 -7°C° 0 mm 2 mps 769 mmHg 58%

Day after tomorrow, 8 December, Tuesday

Time Temperature Precipitation Wind Pressure Humidity
00:00 -7°C° 0 mm 2 mps 769 mmHg 58%
01:00 -8°C° 0 mm 2 mps 769 mmHg 58%
02:00 -8°C° 0 mm 2 mps 769 mmHg 58%
03:00 -8°C° 0 mm 2 mps 769 mmHg 58%
04:00 -8°C° 0 mm 2 mps 768 mmHg 58%
05:00 -8°C° 0 mm 2 mps 768 mmHg 58%
06:00 -8°C° 0 mm 2 mps 768 mmHg 58%
07:00 -8°C° 0 mm 2 mps 768 mmHg 58%
08:00 -8°C° 0 mm 2 mps 768 mmHg 58%
09:00 -8°C° 0 mm 2 mps 768 mmHg 59%
10:00 -7°C° 0 mm 2 mps 768 mmHg 55%
11:00 -6°C° 0 mm 2 mps 768 mmHg 52%
12:00 -5°C° 0 mm 2 mps 768 mmHg 49%
13:00 -5°C° 0 mm 2 mps 768 mmHg 49%
14:00 -5°C° 0 mm 2 mps 768 mmHg 50%
15:00 -5°C° 0 mm 2 mps 768 mmHg 51%
16:00 -6°C° 0 mm 2 mps 768 mmHg 53%
17:00 -6°C° 0 mm 2 mps 767 mmHg 55%
18:00 -8°C° 0 mm 3 mps 767 mmHg 57%
19:00 -8°C° 0 mm 3 mps 767 mmHg 58%
20:00 -8°C° 0 mm 3 mps 767 mmHg 59%
21:00 -8°C° 0 mm 3 mps 767 mmHg 60%
22:00 -8°C° 0 mm 3 mps 767 mmHg 61%
23:00 -8°C° 0 mm 3 mps 767 mmHg 63%

9 December, Wednesday

Time Temperature Precipitation Wind Pressure Humidity
00:00 -8°C° 0 mm 3 mps 767 mmHg 64%
01:00 -8°C° 0 mm 3 mps 767 mmHg 64%
02:00 -8°C° 0 mm 3 mps 767 mmHg 64%
03:00 -8°C° 0 mm 2 mps 767 mmHg 64%
04:00 -8°C° 0 mm 2 mps 767 mmHg 64%
05:00 -8°C° 0 mm 2 mps 767 mmHg 64%
06:00 -8°C° 0 mm 2 mps 767 mmHg 64%
07:00 -8°C° 0 mm 2 mps 767 mmHg 63%
08:00 -9°C° 0 mm 3 mps 767 mmHg 63%
09:00 -9°C° 0 mm 3 mps 767 mmHg 63%
10:00 -8°C° 0 mm 3 mps 767 mmHg 58%
11:00 -7°C° 0 mm 3 mps 767 mmHg 54%
12:00 -7°C° 0 mm 3 mps 767 mmHg 50%
13:00 -7°C° 0 mm 3 mps 767 mmHg 51%
14:00 -6°C° 0 mm 2 mps 767 mmHg 51%
15:00 -6°C° 0 mm 2 mps 767 mmHg 52%
16:00 -6°C° 0 mm 2 mps 767 mmHg 54%
17:00 -7°C° 0 mm 2 mps 767 mmHg 55%
18:00 -7°C° 0 mm 2 mps 766 mmHg 57%
19:00 -7°C° 0 mm 2 mps 766 mmHg 58%
20:00 -7°C° 0 mm 2 mps 766 mmHg 58%
21:00 -8°C° 0 mm 2 mps 766 mmHg 59%
22:00 -8°C° 0 mm 2 mps 766 mmHg 60%
23:00 -8°C° 0 mm 2 mps 766 mmHg 62%

10 December, Thursday

Time Temperature Precipitation Wind Pressure Humidity
00:00 -8°C° 0 mm 2 mps 767 mmHg 63%
01:00 -8°C° 0 mm 2 mps 767 mmHg 64%
02:00 -8°C° 0 mm 2 mps 767 mmHg 65%
03:00 -8°C° 0 mm 2 mps 767 mmHg 66%
04:00 -8°C° 0 mm 2 mps 766 mmHg 67%
05:00 -8°C° 0 mm 2 mps 766 mmHg 68%
06:00 -9°C° 0 mm 2 mps 766 mmHg 69%
07:00 -9°C° 0 mm 2 mps 766 mmHg 69%
08:00 -9°C° 0 mm 2 mps 766 mmHg 70%
09:00 -9°C° 0 mm 2 mps 766 mmHg 70%
10:00 -8°C° 0 mm 2 mps 766 mmHg 66%
11:00 -7°C° 0 mm 2 mps 766 mmHg 62%
12:00 -6°C° 0 mm 2 mps 766 mmHg 57%
13:00 -6°C° 0 mm 2 mps 766 mmHg 58%
14:00 -6°C° 0 mm 2 mps 766 mmHg 58%
15:00 -6°C° 0 mm 2 mps 766 mmHg 58%
16:00 -7°C° 0 mm 2 mps 766 mmHg 60%
17:00 -7°C° 0 mm 2 mps 766 mmHg 62%
18:00 -8°C° 0 mm 2 mps 766 mmHg 64%
19:00 -8°C° 0 mm 2 mps 766 mmHg 64%
20:00 -8°C° 0 mm 2 mps 765 mmHg 65%
21:00 -8°C° 0 mm 2 mps 765 mmHg 65%
22:00 -9°C° 0 mm 2 mps 765 mmHg 65%
23:00 -9°C° 0 mm 2 mps 765 mmHg 66%

11 December, Friday

Time Temperature Precipitation Wind Pressure Humidity
00:00 -9°C° 0 mm 2 mps 765 mmHg 66%
01:00 -9°C° 0 mm 2 mps 765 mmHg 66%
02:00 -9°C° 0 mm 2 mps 765 mmHg 67%
03:00 -9°C° 0 mm 2 mps 765 mmHg 67%
04:00 -9°C° 0 mm 2 mps 765 mmHg 68%
05:00 -10°C° 0 mm 2 mps 765 mmHg 69%
06:00 -10°C° 0 mm 2 mps 764 mmHg 70%
07:00 -10°C° 0 mm 2 mps 764 mmHg 71%
08:00 -10°C° 0 mm 2 mps 764 mmHg 71%
09:00 -10°C° 0 mm 2 mps 764 mmHg 71%
10:00 -9°C° 0 mm 2 mps 764 mmHg 67%
11:00 -9°C° 0 mm 3 mps 764 mmHg 63%
12:00 -9°C° 0 mm 3 mps 764 mmHg 58%
13:00 -8°C° 0 mm 2 mps 764 mmHg 58%
14:00 -8°C° 0 mm 2 mps 764 mmHg 57%
15:00 -8°C° 0 mm 2 mps 764 mmHg 57%
16:00 -8°C° 0 mm 2 mps 764 mmHg 59%
17:00 -9°C° 0 mm 2 mps 763 mmHg 60%
18:00 -9°C° 0 mm 2 mps 763 mmHg 62%
19:00 -9°C° 0 mm 2 mps 763 mmHg 62%
20:00 -9°C° 0 mm 2 mps 763 mmHg 62%
21:00 -10°C° 0 mm 2 mps 763 mmHg 62%
22:00 -10°C° 0 mm 2 mps 763 mmHg 64%
23:00 -10°C° 0 mm 2 mps 763 mmHg 65%
Show more

We Need Your Consent

Meteoprog and our Service Providers may store and access personal data such as cookies, device identifiers or other similar technologies on your device and process such data to personalise content and ads, as well as provide social media features and to analyse the traffic.

  • Store and/or access information on your device

    Cookies, device identifiers or other information can be stored or accessed on your device for the purposes indicated above.

  • Personalised ads and content, ad and content measurement, audience insights, and products development

    Ads and content can be personalised based on a profile. More data can be added to better personalise ads and content. Ad and content performance can be measured. Insights about the audience who saw the ads and content can be derived. Such data can be used to develop or improve user’s experience, systems and software.

By clicking ‘I Agree’ you will allow the use of indicated cookies, device identifiers, web beacons or other similar technologies. Your settings can be changed in the browser on your device.

For certain purposes, legitimate interests may be relied on, rather than consent. You can read more about this in our Privacy and Cookie Policy.